TimeCST,TemperatureF,Dew PointF,Humidity,Sea Level PressureIn,VisibilityMPH,Wind Direction,Wind SpeedMPH,Gust SpeedMPH,PrecipitationIn,Events,Conditions,WindDirDegrees,DateUTC
12:15 AM,28.4,26.6,93,29.87,10.0,Calm,Calm,-,N/A,,Overcast,0,2013-02-24 06:15:00
12:35 AM,28.4,26.6,93,29.87,10.0,Calm,Calm,-,N/A,,Overcast,0,2013-02-24 06:35:00
12:55 AM,28.4,26.6,93,29.88,10.0,Calm,Calm,-,N/A,Snow,Light Snow,0,2013-02-24 06:55:00
1:15 AM,28.4,26.6,93,29.88,10.0,Calm,Calm,-,N/A,,Overcast,0,2013-02-24 07:15:00
1:35 AM,28.4,26.6,93,29.89,10.0,NW,3.5,-,N/A,,Overcast,310,2013-02-24 07:35:00
1:55 AM,28.4,26.6,93,29.90,10.0,Calm,Calm,-,N/A,,Overcast,0,2013-02-24 07:55:00
2:15 AM,28.4,26.6,93,29.90,10.0,Calm,Calm,-,N/A,,Overcast,0,2013-02-24 08:15:00
2:35 AM,28.4,26.6,93,29.90,10.0,Calm,Calm,-,N/A,,Overcast,0,2013-02-24 08:35:00
2:55 AM,28.4,26.6,93,29.90,10.0,Calm,Calm,-,N/A,,Overcast,0,2013-02-24 08:55:00
3:15 AM,26.6,26.6,100,29.91,10.0,Calm,Calm,-,N/A,,Overcast,0,2013-02-24 09:15:00
3:35 AM,26.6,26.6,100,29.91,10.0,Calm,Calm,-,N/A,,Overcast,0,2013-02-24 09:35:00
3:55 AM,26.6,26.6,100,29.91,10.0,Calm,Calm,-,N/A,,Overcast,0,2013-02-24 09:55:00
4:15 AM,26.6,26.6,100,29.92,10.0,Calm,Calm,-,N/A,,Overcast,0,2013-02-24 10:15:00
4:35 AM,26.6,26.6,100,29.92,10.0,Calm,Calm,-,N/A,,Overcast,0,2013-02-24 10:35:00
4:55 AM,26.6,26.6,100,29.93,10.0,Calm,Calm,-,N/A,,Overcast,0,2013-02-24 10:55:00
5:15 AM,26.6,24.8,93,29.94,10.0,Calm,Calm,-,N/A,,Overcast,0,2013-02-24 11:15:00
5:35 AM,26.6,24.8,93,29.95,10.0,Calm,Calm,-,N/A,,Overcast,0,2013-02-24 11:35:00
5:55 AM,24.8,24.8,100,29.96,10.0,Calm,Calm,-,N/A,,Overcast,0,2013-02-24 11:55:00
6:15 AM,26.6,24.8,93,29.97,10.0,Calm,Calm,-,N/A,,Overcast,0,2013-02-24 12:15:00
6:35 AM,26.6,24.8,93,29.97,10.0,Calm,Calm,-,N/A,,Overcast,0,2013-02-24 12:35:00
7:15 AM,24.8,24.8,100,29.98,10.0,Calm,Calm,-,N/A,,Overcast,0,2013-02-24 13:15:00
7:35 AM,26.6,24.8,93,29.99,10.0,Calm,Calm,-,N/A,,Overcast,0,2013-02-24 13:35:00
7:55 AM,26.6,24.8,93,29.99,10.0,Calm,Calm,-,N/A,,Overcast,0,2013-02-24 13:55:00
8:35 AM,-9999,-9999,N/A,30.03,-9999.0,Calm,Calm,-,N/A,,Unknown,0,2013-02-24 14:35:00
8:55 AM,28.4,24.8,86,30.01,10.0,Calm,Calm,-,N/A,,Overcast,0,2013-02-24 14:55:00
9:15 AM,28.4,24.8,86,30.01,10.0,Calm,Calm,-,N/A,,Overcast,0,2013-02-24 15:15:00
9:35 AM,28.4,24.8,86,30.01,10.0,Calm,Calm,-,N/A,,Overcast,0,2013-02-24 15:35:00
9:55 AM,28.4,24.8,86,30.01,10.0,Calm,Calm,-,N/A,,Overcast,0,2013-02-24 15:55:00
10:15 AM,30.2,24.8,80,30.02,10.0,Calm,Calm,-,N/A,,Overcast,0,2013-02-24 16:15:00
10:35 AM,30.2,24.8,80,30.02,10.0,Calm,Calm,-,N/A,,Overcast,0,2013-02-24 16:35:00
11:15 AM,30.2,21.2,69,30.02,10.0,Calm,Calm,-,N/A,,Unknown,0,2013-02-24 17:15:00
11:35 AM,30.2,21.2,69,30.03,10.0,Calm,Calm,-,N/A,,Overcast,0,2013-02-24 17:35:00
11:55 AM,30.2,23.0,75,30.04,10.0,Calm,Calm,-,N/A,,Overcast,0,2013-02-24 17:55:00
12:15 PM,30.2,23.0,75,30.04,10.0,Calm,Calm,-,N/A,,Overcast,0,2013-02-24 18:15:00
12:35 PM,30.2,23.0,75,30.03,10.0,Calm,Calm,-,N/A,,Overcast,0,2013-02-24 18:35:00
12:55 PM,30.2,23.0,75,30.03,10.0,Calm,Calm,-,N/A,,Overcast,0,2013-02-24 18:55:00
1:15 PM,32.0,23.0,69,30.04,10.0,Calm,Calm,-,N/A,,Overcast,0,2013-02-24 19:15:00
1:35 PM,32.0,23.0,69,30.03,10.0,Calm,Calm,-,N/A,,Overcast,0,2013-02-24 19:35:00
1:55 PM,32.0,23.0,69,30.03,10.0,Calm,Calm,-,N/A,,Overcast,0,2013-02-24 19:55:00
2:15 PM,32.0,23.0,69,30.03,10.0,Calm,Calm,-,N/A,,Overcast,0,2013-02-24 20:15:00
2:35 PM,32.0,24.8,75,30.04,10.0,Calm,Calm,-,N/A,,Overcast,0,2013-02-24 20:35:00
2:55 PM,32.0,24.8,75,30.04,10.0,Calm,Calm,-,N/A,,Overcast,0,2013-02-24 20:55:00
3:15 PM,32.0,24.8,75,30.05,10.0,Calm,Calm,-,N/A,,Overcast,0,2013-02-24 21:15:00
3:35 PM,32.0,24.8,75,30.04,10.0,SW,3.5,-,N/A,,Overcast,230,2013-02-24 21:35:00
3:55 PM,32.0,24.8,75,30.04,10.0,Calm,Calm,-,N/A,,Overcast,0,2013-02-24 21:55:00
4:15 PM,32.0,24.8,75,30.04,10.0,Calm,Calm,-,N/A,,Overcast,0,2013-02-24 22:15:00
4:35 PM,32.0,24.8,75,30.04,10.0,Calm,Calm,-,N/A,,Overcast,0,2013-02-24 22:35:00
4:55 PM,32.0,24.8,75,30.04,10.0,Calm,Calm,-,N/A,,Overcast,0,2013-02-24 22:55:00
5:15 PM,32.0,26.6,80,30.04,10.0,Calm,Calm,-,N/A,,Overcast,0,2013-02-24 23:15:00
5:35 PM,32.0,26.6,80,30.04,10.0,Calm,Calm,-,N/A,,Overcast,0,2013-02-24 23:35:00
5:55 PM,30.2,26.6,86,30.05,10.0,Calm,Calm,-,N/A,,Overcast,0,2013-02-24 23:55:00
6:15 PM,32.0,26.6,80,30.05,10.0,Calm,Calm,-,N/A,,Overcast,0,2013-02-25 00:15:00
6:35 PM,30.2,26.6,86,30.05,10.0,South,4.6,-,N/A,,Overcast,180,2013-02-25 00:35:00
6:55 PM,32.0,24.8,75,30.06,10.0,South,3.5,-,N/A,,Overcast,180,2013-02-25 00:55:00
7:15 PM,32.0,26.6,80,30.06,10.0,Calm,Calm,-,N/A,,Overcast,0,2013-02-25 01:15:00
7:35 PM,32.0,24.8,75,30.05,10.0,SE,4.6,-,N/A,,Overcast,140,2013-02-25 01:35:00
7:55 PM,30.2,26.6,86,30.05,10.0,Calm,Calm,-,N/A,,Overcast,0,2013-02-25 01:55:00
8:15 PM,30.2,24.8,80,30.06,10.0,South,3.5,-,N/A,,Overcast,170,2013-02-25 02:15:00
8:35 PM,30.2,24.8,80,30.07,10.0,South,5.8,-,N/A,,Overcast,180,2013-02-25 02:35:00
8:55 PM,30.2,24.8,80,30.07,10.0,South,3.5,-,N/A,,Overcast,190,2013-02-25 02:55:00
9:15 PM,30.2,24.8,80,30.06,10.0,South,4.6,-,N/A,,Overcast,180,2013-02-25 03:15:00
9:35 PM,30.2,24.8,80,30.05,10.0,Calm,Calm,-,N/A,,Overcast,0,2013-02-25 03:35:00
10:15 PM,28.4,24.8,86,30.06,10.0,Calm,Calm,-,N/A,,Unknown,0,2013-02-25 04:15:00
11:55 PM,26.6,24.8,93,30.06,10.0,Calm,Calm,-,N/A,,Unknown,0,2013-02-25 05:55:00